| Date | Time | Temp. (oF) | Dew Point (oF) | Rel. Hum. (%) | Press. (in.) | Wind Dir. | Wind Speed (mph) | Hourly Rainfall (in.) |
|
|---|---|---|---|---|---|---|---|---|---|
| 1 | 01/01 | 00:00 | 25 | 14 | 65 | 30.11 | W | 7 | 0.00 |
| 2 | 12/31 | 23:00 | 26 | 14 | 62 | 30.09 | SSE | 3 | 0.00 |
| 3 | 12/31 | 22:00 | 26 | 15 | 63 | 30.07 | WNW | 5 | 0.00 |
| 4 | 12/31 | 21:00 | 26 | 13 | 60 | 30.05 | WNW | 9 | 0.00 |
| 5 | 12/31 | 20:00 | 26 | 15 | 63 | 30.03 | WNW | 13 | 0.00 |
| 6 | 12/31 | 19:00 | 27 | 14 | 60 | 30.01 | WNW | 20 | 0.00 |
| 7 | 12/31 | 18:00 | 29 | 16 | 58 | 29.97 | WNW | 10 | 0.00 |
| 8 | 12/31 | 17:00 | 29 | 15 | 56 | 29.93 | WSW | 7 | 0.00 |
| 9 | 12/31 | 16:00 | 31 | 14 | 51 | 29.88 | WSW | 5 | 0.00 |
| 10 | 12/31 | 15:00 | 32 | 15 | 50 | 29.86 | SW | 13 | 0.00 |
| 11 | 12/31 | 14:00 | 32 | 15 | 51 | 29.85 | WSW | 6 | 0.00 |
| 12 | 12/31 | 13:00 | 32 | 15 | 51 | 29.85 | WNW | 18 | 0.00 |
| 13 | 12/31 | 12:00 | 31 | 14 | 51 | 29.85 | WNW | 12 | 0.00 |
| 14 | 12/31 | 11:00 | 30 | 15 | 54 | 29.87 | SW | 8 | 0.00 |
| 15 | 12/31 | 10:00 | 29 | 16 | 59 | 29.86 | W | 15 | 0.00 |
| 16 | 12/31 | 09:00 | 26 | 16 | 66 | 29.84 | WSW | 4 | 0.00 |
| 17 | 12/31 | 08:00 | 25 | 15 | 68 | 29.82 | WSW | 7 | 0.00 |
| 18 | 12/31 | 07:00 | 25 | 15 | 67 | 29.82 | S | 4 | 0.00 |
| 19 | 12/31 | 06:00 | 24 | 13 | 65 | 29.80 | SSW | 4 | 0.00 |
| 20 | 12/31 | 05:00 | 23 | 13 | 67 | 29.78 | SW | 8 | 0.00 |
| 21 | 12/31 | 04:00 | 23 | 12 | 65 | 29.76 | WSW | 10 | 0.00 |
| 22 | 12/31 | 03:00 | 22 | 12 | 65 | 29.77 | WSW | 4 | 0.00 |
| 23 | 12/31 | 02:00 | 22 | 12 | 65 | 29.75 | WSW | 5 | 0.00 |
| 24 | 12/31 | 01:00 | 22 | 11 | 64 | 29.74 | SSW | 7 | 0.00 |